| time (UTC) | temp C | wind direction | speed KPH | gust KPH | rain 1hr cm | rain 24hr cm | rain mn cm | humidity % | barometer mb |
| 20260504232013 | 12 | 360 | 0.0 | 3.2 | 0.00 | 0.00 | 0.00 | 79 | 1005.1 |
| 20260504231510 | 12 | 360 | 0.0 | 3.2 | 0.00 | 0.00 | 0.00 | 77 | 1005.1 |
| 20260504231007 | 12 | 360 | 0.0 | 3.2 | 0.00 | 0.00 | 0.00 | 77 | 1005.0 |
| 20260504230505 | 12 | 360 | 0.0 | 3.2 | 0.00 | 0.00 | 0.00 | 76 | 1005.0 |
| 20260504230019 | 12 | 360 | 0.0 | 3.2 | 0.00 | 0.00 | 0.00 | 77 | 1005.0 |
| 20260504225507 | 12 | 360 | 0.0 | 3.2 | 0.00 | 0.00 | 0.00 | 75 | 1004.9 |
| 20260504225010 | 13 | 360 | 0.0 | 3.2 | 0.00 | 0.00 | 0.00 | 72 | 1004.9 |
| 20260504224520 | 13 | 360 | 0.0 | 3.2 | 0.00 | 0.00 | 0.00 | 71 | 1004.9 |
| 20260504224011 | 13 | 360 | 0.0 | 3.2 | 0.00 | 0.00 | 0.00 | 72 | 1004.9 |
| 20260504223508 | 13 | 360 | 0.0 | 3.2 | 0.00 | 0.00 | 0.00 | 69 | 1004.9 |
| 20260504223024 | 13 | 360 | 0.0 | 3.2 | 0.00 | 0.00 | 0.00 | 69 | 1005.0 |
| 20260504222510 | 14 | 360 | 0.0 | 3.2 | 0.00 | 0.00 | 0.00 | 67 | 1005.0 |
| 20260504222010 | 15 | 360 | 0.0 | 3.2 | 0.00 | 0.00 | 0.00 | 66 | 1005.0 |
| 20260504221525 | 15 | 360 | 0.0 | 3.2 | 0.00 | 0.00 | 0.00 | 64 | 1005.0 |
| 20260504221012 | 15 | 360 | 0.0 | 3.2 | 0.00 | 0.00 | 0.00 | 61 | 1004.9 |
| 20260504220510 | 15 | 360 | 0.0 | 4.8 | 0.00 | 0.00 | 0.00 | 57 | 1004.9 |
| 20260504220014 | 15 | 360 | 0.0 | 4.8 | 0.00 | 0.00 | 0.00 | 58 | 1004.8 |
| 20260504215506 | 16 | 360 | 1.6 | 14.5 | 0.00 | 0.00 | 0.00 | 54 | 1004.8 |
| 20260504215009 | 16 | 360 | 3.2 | 16.1 | 0.00 | 0.00 | 0.00 | 54 | 1004.8 |
| 20260504214518 | 16 | 360 | 3.2 | 16.1 | 0.00 | 0.00 | 0.00 | 53 | 1004.8 |
| 20260504214009 | 16 | 360 | 3.2 | 8.0 | 0.00 | 0.00 | 0.00 | 54 | 1004.8 |
| 20260504213506 | 16 | 360 | 3.2 | 11.3 | 0.00 | 0.00 | 0.00 | 55 | 1004.7 |
| 20260504213023 | 16 | 360 | 3.2 | 19.3 | 0.00 | 0.00 | 0.00 | 54 | 1004.8 |
| 20260504212512 | 16 | 360 | 4.8 | 19.3 | 0.00 | 0.00 | 0.00 | 54 | 1004.7 |
| 20260504212011 | 16 | 360 | 3.2 | 12.9 | 0.00 | 0.00 | 0.00 | 54 | 1004.8 |
| 20260504211525 | 16 | 360 | 4.8 | 12.9 | 0.00 | 0.00 | 0.00 | 55 | 1004.8 |
| 20260504211010 | 16 | 360 | 4.8 | 12.9 | 0.00 | 0.00 | 0.00 | 54 | 1004.7 |
| 20260504210510 | 16 | 360 | 1.6 | 11.3 | 0.00 | 0.00 | 0.00 | 57 | 1004.5 |
| 20260504210028 | 15 | 360 | 1.6 | 8.0 | 0.00 | 0.00 | 0.00 | 55 | 1004.6 |
| 20260504205504 | 15 | 360 | 3.2 | 19.3 | 0.00 | 0.00 | 0.00 | 56 | 1004.5 |
| 20260504205002 | 15 | 120 | 4.8 | 19.3 | 0.00 | 0.00 | 0.00 | 55 | 1004.5 |
| 20260504204504 | 16 | 298 | 4.8 | 19.3 | 0.00 | 0.00 | 0.00 | 55 | 1004.4 |
| 20260504204002 | 15 | 292 | 6.4 | 19.3 | 0.00 | 0.00 | 0.00 | 55 | 1004.4 |
| 20260504203502 | 16 | 198 | 1.6 | 19.3 | 0.00 | 0.00 | 0.00 | 57 | 1004.4 |
| 20260504203006 | 15 | 338 | 4.8 | 17.7 | 0.00 | 0.00 | 0.00 | 56 | 1004.4 |
| 20260504202506 | 15 | 360 | 3.2 | 12.9 | 0.00 | 0.00 | 0.00 | 58 | 1004.5 |
| 20260504202007 | 15 | 360 | 1.6 | 8.0 | 0.00 | 0.00 | 0.00 | 61 | 1004.5 |
| 20260504201506 | 14 | 360 | 3.2 | 9.7 | 0.00 | 0.00 | 0.00 | 61 | 1004.5 |
| 20260504201004 | 14 | 360 | 1.6 | 9.7 | 0.00 | 0.00 | 0.00 | 60 | 1004.6 |
| 20260504200508 | 14 | 360 | 3.2 | 9.7 | 0.00 | 0.00 | 0.00 | 61 | 1004.5 |
| 20260504200010 | 14 | 360 | 1.6 | 9.7 | 0.00 | 0.00 | 0.00 | 63 | 1004.5 |
| 20260504195505 | 14 | 360 | 4.8 | 9.7 | 0.00 | 0.00 | 0.00 | 61 | 1004.4 |
| 20260504195006 | 14 | 360 | 0.0 | 14.5 | 0.00 | 0.00 | 0.00 | 63 | 1004.4 |
| 20260504194504 | 13 | 360 | 4.8 | 16.1 | 0.00 | 0.00 | 0.00 | 62 | 1004.4 |
| 20260504194003 | 13 | 360 | 3.2 | 16.1 | 0.00 | 0.00 | 0.00 | 63 | 1004.4 |
| 20260504193502 | 13 | 360 | 4.8 | 16.1 | 0.00 | 0.00 | 0.00 | 62 | 1004.3 |
| 20260504193004 | 13 | 360 | 3.2 | 17.7 | 0.00 | 0.00 | 0.00 | 62 | 1004.3 |
| 20260504192502 | 13 | 360 | 3.2 | 17.7 | 0.00 | 0.00 | 0.00 | 62 | 1004.4 |
| 20260504192003 | 14 | 360 | 6.4 | 14.5 | 0.00 | 0.00 | 0.00 | 61 | 1004.3 |
| 20260504191504 | 14 | 360 | 3.2 | 9.7 | 0.00 | 0.00 | 0.00 | 60 | 1004.4 |
| 20260504191003 | 14 | 360 | 1.6 | 19.3 | 0.00 | 0.00 | 0.00 | 60 | 1004.4 |
| 20260504190506 | 14 | 360 | 6.4 | 24.1 | 0.00 | 0.00 | 0.00 | 60 | 1004.3 |
| 20260504190007 | 15 | 360 | 4.8 | 24.1 | 0.00 | 0.00 | 0.00 | 58 | 1004.4 |
| 20260504185504 | 15 | 360 | 6.4 | 19.3 | 0.00 | 0.00 | 0.00 | 56 | 1004.3 |
| 20260504185004 | 16 | 360 | 8.0 | 17.7 | 0.00 | 0.00 | 0.00 | 56 | 1004.5 |
| 20260504184515 | 16 | 360 | 3.2 | 17.7 | 0.00 | 0.00 | 0.00 | 56 | 1004.4 |
| 20260504184006 | 16 | 360 | 6.4 | 17.7 | 0.00 | 0.00 | 0.00 | 57 | 1004.4 |
| 20260504183510 | 15 | 360 | 8.0 | 17.7 | 0.00 | 0.00 | 0.00 | 59 | 1004.4 |
| 20260504183003 | 14 | 15 | 6.4 | 20.9 | 0.00 | 0.00 | 0.00 | 61 | 1004.4 |
| 20260504182502 | 13 | 360 | 4.8 | 20.9 | 0.00 | 0.00 | 0.00 | 63 | 1004.5 |
| 20260504182003 | 13 | 360 | 3.2 | 17.7 | 0.00 | 0.00 | 0.00 | 64 | 1004.5 |
| 20260504181504 | 13 | 360 | 6.4 | 19.3 | 0.00 | 0.00 | 0.00 | 63 | 1004.5 |
| 20260504181004 | 13 | 360 | 8.0 | 19.3 | 0.00 | 0.00 | 0.00 | 64 | 1004.6 |
| 20260504180503 | 13 | 360 | 6.4 | 16.1 | 0.00 | 0.00 | 0.00 | 65 | 1004.6 |
| 20260504180010 | 12 | 360 | 3.2 | 17.7 | 0.00 | 0.00 | 0.00 | 68 | 1004.7 |
| 20260504175503 | 12 | 360 | 3.2 | 24.1 | 0.00 | 0.00 | 0.00 | 66 | 1004.7 |
| 20260504175005 | 12 | 360 | 3.2 | 24.1 | 0.00 | 0.00 | 0.00 | 67 | 1004.9 |
| 20260504174509 | 12 | 360 | 4.8 | 12.9 | 0.00 | 0.03 | 0.00 | 66 | 1004.8 |
| 20260504174005 | 12 | 360 | 3.2 | 9.7 | 0.00 | 0.03 | 0.00 | 68 | 1004.9 |
| 20260504173506 | 12 | 360 | 1.6 | 8.0 | 0.00 | 0.03 | 0.00 | 68 | 1004.9 |
| 20260504173014 | 12 | 360 | 0.0 | 9.7 | 0.00 | 0.03 | 0.00 | 69 | 1005.0 |
| 20260504172507 | 12 | 360 | 3.2 | 9.7 | 0.00 | 0.03 | 0.00 | 68 | 1005.0 |
| 20260504172009 | 12 | 360 | 1.6 | 9.7 | 0.00 | 0.03 | 0.00 | 69 | 1005.1 |
| 20260504171504 | 12 | 360 | 4.8 | 9.7 | 0.00 | 0.03 | 0.00 | 68 | 1005.1 |
| 20260504171003 | 11 | 360 | 1.6 | 8.0 | 0.00 | 0.03 | 0.00 | 68 | 1005.0 |
| 20260504170503 | 11 | 360 | 1.6 | 14.5 | 0.00 | 0.03 | 0.00 | 70 | 1005.0 |
| 20260504151007 | 12 | 360 | 4.8 | 14.5 | 0.00 | 0.18 | 0.00 | 55 | 1004.6 |
| 20260504150511 | 12 | 360 | 3.2 | 14.5 | 0.00 | 0.18 | 0.00 | 55 | 1004.8 |
| 20260504141008 | 11 | 360 | 3.2 | 19.3 | 0.00 | 0.30 | 0.00 | 57 | 1005.8 |
| 20260504140505 | 11 | 360 | 1.6 | 19.3 | 0.00 | 0.33 | 0.00 | 58 | 1005.8 |
| 20260504130504 | 10 | 360 | 1.6 | 14.5 | 0.00 | 0.43 | 0.00 | 57 | 1006.6 |
| 20260504110506 | 1 | 360 | 0.0 | 0.0 | 0.00 | 0.89 | 0.00 | 95 | 1006.8 |
| 20260504100503 | -1 | 360 | 0.0 | 0.0 | 0.00 | 0.99 | 0.00 | 94 | 1006.8 |
| 20260504082006 | -1 | 360 | 0.0 | 3.2 | 0.00 | 1.22 | 0.00 | 92 | 1006.3 |
| 20260504081522 | -1 | 360 | 0.0 | 3.2 | 0.00 | 1.24 | 0.00 | 92 | 1006.3 |
| 20260504081011 | -1 | 360 | 0.0 | 3.2 | 0.00 | 1.27 | 0.00 | 92 | 1006.3 |
| 20260504080511 | -1 | 360 | 0.0 | 3.2 | 0.00 | 1.27 | 0.00 | 92 | 1006.3 |
| 20260504050505 | 1 | 360 | 0.0 | 3.2 | 0.00 | 1.55 | 0.00 | 86 | 1005.8 |
| 20260504050020 | 1 | 360 | 0.0 | 3.2 | 0.00 | 1.55 | 0.00 | 86 | 1005.8 |
| 20260504045505 | 1 | 360 | 0.0 | 3.2 | 0.00 | 1.57 | 0.00 | 86 | 1005.8 |
| 20260504045008 | 1 | 360 | 0.0 | 3.2 | 0.00 | 1.57 | 0.00 | 85 | 1005.8 |
| 20260504044518 | 1 | 360 | 0.0 | 3.2 | 0.00 | 1.60 | 0.00 | 83 | 1005.8 |
| 20260504044003 | 1 | 360 | 0.0 | 3.2 | 0.00 | 1.60 | 0.00 | 82 | 1005.8 |
| 20260504043503 | 1 | 360 | 0.0 | 3.2 | 0.00 | 1.60 | 0.00 | 82 | 1005.8 |
| 20260504043004 | 2 | 360 | 0.0 | 3.2 | 0.00 | 1.60 | 0.00 | 82 | 1005.8 |
| 20260504042504 | 2 | 360 | 0.0 | 3.2 | 0.00 | 1.60 | 0.00 | 80 | 1005.8 |
| 20260504042003 | 2 | 360 | 0.0 | 3.2 | 0.00 | 1.60 | 0.00 | 78 | 1005.8 |
| 20260504041510 | 2 | 360 | 0.0 | 3.2 | 0.00 | 1.60 | 0.00 | 77 | 1005.7 |
| 20260504041003 | 2 | 360 | 0.0 | 12.9 | 0.00 | 1.63 | 0.00 | 75 | 1005.7 |
| 20260504040504 | 2 | 360 | 0.0 | 12.9 | 0.00 | 1.63 | 0.00 | 74 | 1005.6 |
| 20260504040017 | 2 | 360 | 0.0 | 4.8 | 0.00 | 1.63 | 0.00 | 77 | 1005.6 |
| 20260504035510 | 3 | 360 | 0.0 | 4.8 | 0.00 | 1.63 | 1.63 | 75 | 1005.5 |
| 20260504035009 | 3 | 360 | 1.6 | 6.4 | 0.00 | 1.63 | 1.63 | 76 | 1005.4 |
| 20260504034521 | 2 | 360 | 1.6 | 9.7 | 0.00 | 1.63 | 1.63 | 72 | 1005.4 |
| 20260504034011 | 2 | 360 | 1.6 | 9.7 | 0.00 | 1.63 | 1.63 | 76 | 1005.3 |
| 20260504033508 | 2 | 360 | 1.6 | 6.4 | 0.00 | 1.63 | 1.63 | 75 | 1005.2 |
| 20260504033020 | 2 | 360 | 0.0 | 6.4 | 0.00 | 1.63 | 1.63 | 76 | 1005.2 |
| 20260504032516 | 2 | 360 | 0.0 | 6.4 | 0.00 | 1.63 | 1.63 | 75 | 1005.2 |
| 20260504032006 | 2 | 360 | 0.0 | 12.9 | 0.00 | 1.65 | 1.63 | 77 | 1005.2 |
| 20260504031506 | 2 | 360 | 3.2 | 12.9 | 0.00 | 1.65 | 1.63 | 78 | 1005.1 |
| 20260504031008 | 2 | 360 | 0.0 | 6.4 | 0.00 | 1.65 | 1.63 | 77 | 1005.1 |
| 20260504030504 | 3 | 360 | 0.0 | 8.0 | 0.00 | 1.65 | 1.63 | 80 | 1005.1 |
| 20260504030011 | 3 | 360 | 0.0 | 8.0 | 0.00 | 1.65 | 1.63 | 77 | 1005.1 |
| 20260504025508 | 3 | 360 | 1.6 | 3.2 | 0.00 | 1.65 | 1.63 | 75 | 1005.1 |
| 20260504025006 | 3 | 360 | 1.6 | 6.4 | 0.00 | 1.65 | 1.63 | 74 | 1005.2 |
| 20260504024514 | 3 | 360 | 1.6 | 9.7 | 0.00 | 1.65 | 1.63 | 73 | 1005.1 |
| 20260504024007 | 3 | 360 | 1.6 | 9.7 | 0.00 | 1.65 | 1.63 | 71 | 1005.1 |
| 20260504023507 | 3 | 360 | 1.6 | 6.4 | 0.00 | 1.65 | 1.63 | 76 | 1005.1 |
| 20260504023020 | 3 | 360 | 3.2 | 14.5 | 0.00 | 1.65 | 1.63 | 73 | 1005.0 |
| 20260504022509 | 3 | 360 | 1.6 | 14.5 | 0.00 | 1.65 | 1.63 | 71 | 1005.0 |
| 20260504022007 | 3 | 360 | 1.6 | 4.8 | 0.00 | 1.65 | 1.63 | 77 | 1005.0 |
| 20260504021523 | 3 | 360 | 1.6 | 6.4 | 0.00 | 1.65 | 1.63 | 73 | 1005.0 |
| 20260504021009 | 3 | 360 | 1.6 | 6.4 | 0.00 | 1.65 | 1.63 | 72 | 1005.0 |
| 20260504020503 | 3 | 360 | 1.6 | 8.0 | 0.00 | 1.65 | 1.63 | 75 | 1004.9 |
| 20260504020008 | 3 | 360 | 1.6 | 8.0 | 0.00 | 1.65 | 1.63 | 77 | 1004.9 |
| 20260504015504 | 3 | 360 | 0.0 | 3.2 | 0.00 | 1.65 | 1.63 | 78 | 1004.9 |
| 20260504015006 | 3 | 360 | 1.6 | 4.8 | 0.00 | 1.65 | 1.63 | 73 | 1004.9 |
| 20260504014513 | 4 | 360 | 0.0 | 14.5 | 0.00 | 1.65 | 1.63 | 72 | 1004.8 |
| 20260504014004 | 4 | 360 | 4.8 | 14.5 | 0.00 | 1.65 | 1.63 | 66 | 1004.8 |
| 20260504013507 | 4 | 360 | 1.6 | 6.4 | 0.00 | 1.65 | 1.63 | 67 | 1004.8 |
| 20260504013024 | 5 | 360 | 1.6 | 12.9 | 0.00 | 1.65 | 1.63 | 69 | 1004.9 |
| 20260504012507 | 5 | 360 | 0.0 | 12.9 | 0.00 | 1.65 | 1.63 | 70 | 1004.8 |
| 20260504012008 | 5 | 360 | 3.2 | 12.9 | 0.00 | 1.65 | 1.63 | 65 | 1004.7 |
| 20260504011527 | 5 | 360 | 1.6 | 9.7 | 0.00 | 1.65 | 1.63 | 65 | 1004.6 |
| 20260504011009 | 5 | 360 | 1.6 | 14.5 | 0.00 | 1.65 | 1.63 | 60 | 1004.6 |
| 20260504010506 | 6 | 360 | 4.8 | 14.5 | 0.00 | 1.65 | 1.63 | 59 | 1004.5 |
| 20260504010023 | 6 | 360 | 3.2 | 9.7 | 0.00 | 1.68 | 1.63 | 60 | 1004.5 |
| 20260504005509 | 6 | 360 | 4.8 | 12.9 | 0.00 | 1.68 | 1.63 | 61 | 1004.4 |
| 20260504005003 | 6 | 360 | 6.4 | 12.9 | 0.00 | 1.68 | 1.63 | 59 | 1004.3 |
| 20260504004510 | 5 | 360 | 6.4 | 12.9 | 0.00 | 1.68 | 1.63 | 59 | 1004.2 |
| 20260504004003 | 5 | 360 | 3.2 | 9.7 | 0.00 | 1.68 | 1.63 | 59 | 1004.2 |
| 20260504003508 | 6 | 360 | 1.6 | 14.5 | 0.00 | 1.68 | 1.63 | 58 | 1004.1 |
| 20260504003012 | 6 | 360 | 4.8 | 14.5 | 0.00 | 1.68 | 1.63 | 58 | 1004.0 |
| 20260504002507 | 6 | 360 | 4.8 | 12.9 | 0.00 | 1.68 | 1.63 | 58 | 1003.9 |
| 20260504002010 | 6 | 360 | 4.8 | 14.5 | 0.00 | 1.68 | 1.63 | 60 | 1003.9 |
| 20260504001518 | 6 | 360 | 0.0 | 14.5 | 0.00 | 1.68 | 1.63 | 64 | 1003.9 |
| 20260504001010 | 6 | 360 | 4.8 | 16.1 | 0.00 | 1.70 | 1.63 | 64 | 1003.8 |
| 20260504000509 | 6 | 360 | 3.2 | 16.1 | 0.00 | 1.70 | 1.63 | 61 | 1003.8 |
| 20260504000049 | 6 | 360 | 1.6 | 6.4 | 0.00 | 1.70 | 1.63 | 63 | 1003.7 |
| 20260503235510 | 6 | 360 | 0.0 | 6.4 | 0.00 | 1.70 | 1.63 | 68 | 1003.6 |
| 20260503235010 | 7 | 360 | 1.6 | 16.1 | 0.00 | 1.70 | 1.63 | 61 | 1003.6 |
| 20260503234526 | 7 | 360 | 4.8 | 16.1 | 0.00 | 1.70 | 1.63 | 56 | 1003.5 |
| 20260503234010 | 7 | 360 | 3.2 | 16.1 | 0.00 | 1.73 | 1.63 | 58 | 1003.3 |
| 20260503233512 | 7 | 360 | 4.8 | 16.1 | 0.00 | 1.73 | 1.63 | 54 | 1003.2 |
| 20260503233011 | 8 | 360 | 4.8 | 22.5 | 0.00 | 1.73 | 1.63 | 52 | 1003.2 |
| 20260503232505 | 8 | 360 | 12.9 | 22.5 | 0.00 | 1.73 | 1.63 | 52 | 1003.2 |